Location: La Pernelle
(49.6188°N, 1.2999°W)
Time: 09:38:08
(UTC+00:00)

Cosmos 2173 Rocket - Pass Details

Date: 12 June 2021
Orbit: 945 x 1000 km, 83.0° (Epoch: 03 August)

Event Time Altitude Azimuth Distance (km) Brightness Sun altitude
Rises 22:06:04 0° 349° (N) 3,722 8.6 -12.5°
Reaches altitude 10° 22:08:36 10° 349° (N) 2,774 7.7 -12.7°
Maximum altitude 22:14:59 81° 263° (W) 1,019 4.1 -13.2°
Enters shadow 22:20:17 16° 178° (S) 2,375 5.5 -13.5°
